Probability
0 0 0 0 0 0 0 0 0 0 0 0 0 0 0 0 0 0 0 0 0 0 0 0 0 0 0 0 0 0 0 0 0 0 0 0 0 0 0 0 0 0 0
0 0 0 0 0 0 0 0 0 0 0 0 0 0 0 0 0 0 0 0 0 0 0 0 0 0 0 0 0 0 0 0 0 0 0 0 0 0 0 0 0 0 0
0 0 0 0 0 0 0 0 0 0 0 0 0 0 0 0 0 0 0 0 0 0 0 0 0 0 0 0 0 0 0 0 0 0 0 0 0 0 0 0 0 0 0
0 0 0 0 0 0 0 0 0 0 0 0 0 0 0 0 0 0 0 0 0 0 0 0 0 0 0 0 0 0 0 0 0 0 0 0 0 0 0 0 0 0 0
0 0 0 0 0 0 0 0 0 0 0 0 0 0 0 0 0 0 0 0 0 0 0 0 0 0 0 0 0 0 0 0 0 0 0 0 0 0 0 0 0 0 0
0 0 0 0 0 0 0 0 0 0 0 0 0 0 0 0 0 0 0 0 0 0 0 0 0 0 0 0 0 0 0 0 0 0 0 0 0 0 0 0 0 0 0
3 0 0 0 0 0 0 0 0 0 0 0 0 0 0 0 0 0 0 0 0 0 0 0 0 0 0 0 0 0 0 0 0 0 0 0 0 0 0 0 0 0 0
3 3 0 0 0 0 0 0 0 0 0 0 0 0 0 0 0 0 0 0 0 0 0 0 0 0 0 0 0 0 0 0 0 0 0 0 0 0 0 0 0 0 0
0 0 0 0 0 0 0 0 0 0 0 0 0 0 0 0 0 0 0 0 0 0 0 0 0 0 0 0 0 0 0 0 0 0 0 0 0 0 0 0 0 0 0
0 0 0 0 0 0 0 0 0 0 0 0 0 0 0 0 0 0 0 0 0 0 0 0 0 0 0 0 0 0 0 0 0 0 0 0 0 0 0 0 0 0 0
0 0 0 0 0 0 0 0 0 0 0 0 0 0 0 0 0 0 0 0 0 0 0 0 0 0 0 0 0 0 0 0 0 0 0 0 0 0 0 0 0 0 0
0 0 0 0 0 0 0 0 0 0 0 0 0 0 0 0 0 0 0 0 0 0 0 0 0 0 0 0 0 0 0 0 0 0 0 0 0 0 0 0 0 0 0
0 0 0 0 0 0 0 0 0 0 0 0 0 0 0 0 0 0 0 0 0 0 0 0 0 0 0 0 0 0 0 0 0 0 0 0 0 0 0 0 0 0 0
0 0 0 0 0 0 0 0 0 0 0 0 0 0 0 0 0 0 0 0 0 0 0 0 0 0 0 0 0 0 0 0 0 0 0 0 0 0 0 0 0 0 0
0 0 0 0 0 0 0 0 0 0 0 0 0 0 0 0 0 0 0 0 0 0 0 0 0 0 0 0 0 0 0 0 0 0 0 0 0 0 0 0 0 0 0
0 0 0 3 3 0 0 0 0 0 0 0 0 0 0 0 0 0 0 0 0 0 0 0 0 0 0 0 0 0 0 0 0 0 0 0 0 0 0 0 0 0 0
0 0 0 3 3 0 0 0 0 0 0 0 0 0 0 0 0 0 0 0 0 0 0 0 0 0 0 0 0 0 0 0 0 0 0 0 0 0 0 0 0 0 0
0 0 0 0 0 0 0 0 0 0 0 0 0 0 0 0 0 0 0 0 0 0 0 0 0 0 0 0 0 0 0 0 0 0 0 0 0 0 0 0 0 0 0
0 0 0 0 0 0 0 0 0 0 0 0 0 0 0 0 0 0 0 0 0 0 0 0 0 0 0 0 0 0 0 0 0 0 0 0 0 0 0 0 0 0 0
0 0 0 0 0 0 0 0 0 0 0 0 0 0 0 0 0 0 0 0 0 0 0 0 0 0 0 0 0 0 0 0 0 0 0 0 0 0 0 0 0 0 0
0 0 0 0 0 0 0 0 0 0 0 0 0 0 0 0 0 0 0 0 0 0 0 0 0 0 0 0 0 0 0 0 0 0 0 0 0 0 0 0 0 0 0
0 0 0 0 0 0 0 0 0 0 0 0 0 0 0 0 0 0 0 0 0 0 0 0 0 0 0 0 0 0 0 0 0 0 0 0 0 0 0 0 0 0 0
0 0 0 0 0 0 0 0 0 0 0 0 0 0 0 0 0 0 0 0 0 0 0 0 0 0 0 0 0 0 0 0 0 0 0 0 0 0 0 0 0 0 0
0 0 0 0 0 0 0 0 0 0 0 0 0 0 0 0 0 0 0 0 0 0 0 0 0 0 0 0 0 0 0 0 0 0 0 0 0 0 0 0 0 0 0
0 0 0 0 0 0 0 0 0 0 0 0 0 0 0 0 0 0 0 0 0 0 0 0 0 0 0 0 0 0 0 0 0 0 0 0 0 0 0 0 0 0 0
0 0 0 0 0 0 0 0 0 0 0 0 0 0 0 0 0 0 0 0 0 0 0 0 0 0 0 0 0 0 0 0 0 0 0 0 0 0 0 0 0 0 0
Height
5851 5850 5849 5848 5846 5844 5842 5840 5838 5836 5834 5832 5830 5829 5829 5829 5827 5826 5825 5826 5828 5828 5828 5829 5831 5833 5834 5836 5838 5839 5841 5843 5845 5847 5847 5848 5849 5849 5850 5852 5854 5857 5859
5846 5845 5844 5842 5840 5839 5837 5835 5833 5831 5829 5827 5826 5826 5825 5824 5823 5822 5821 5821 5823 5824 5825 5825 5827 5829 5831 5833 5835 5837 5839 5841 5843 5845 5846 5847 5849 5848 5849 5851 5853 5854 5856
5840 5840 5839 5837 5835 5833 5831 5829 5827 5825 5823 5822 5821 5820 5820 5819 5818 5818 5817 5817 5818 5819 5819 5820 5822 5824 5826 5829 5831 5833 5836 5838 5841 5842 5844 5846 5846 5847 5848 5849 5851 5853 5854
5834 5834 5833 5832 5830 5828 5826 5823 5821 5819 5817 5815 5814 5813 5813 5813 5813 5812 5812 5812 5813 5813 5813 5814 5816 5818 5821 5824 5827 5830 5832 5835 5838 5840 5842 5844 5845 5845 5846 5848 5849 5850 5852
5829 5829 5828 5826 5824 5822 5820 5818 5815 5813 5811 5809 5807 5806 5805 5805 5805 5805 5806 5806 5806 5806 5806 5807 5809 5812 5815 5818 5822 5825 5828 5831 5834 5836 5838 5840 5841 5842 5843 5845 5846 5848 5849
5824 5823 5822 5821 5819 5816 5814 5811 5809 5807 5805 5803 5801 5800 5799 5799 5799 5799 5799 5800 5799 5799 5799 5800 5802 5805 5808 5811 5816 5820 5823 5826 5830 5833 5834 5835 5837 5839 5840 5841 5842 5843 5845
5819 5818 5816 5814 5812 5810 5807 5804 5801 5800 5798 5797 5795 5794 5794 5793 5793 5793 5793 5793 5793 5792 5792 5792 5794 5797 5801 5805 5809 5813 5817 5821 5824 5827 5829 5831 5833 5835 5837 5838 5838 5839 5841
5813 5812 5811 5809 5806 5803 5801 5798 5796 5794 5792 5791 5790 5789 5789 5788 5788 5787 5787 5787 5786 5786 5785 5785 5786 5790 5795 5799 5803 5807 5811 5814 5818 5821 5823 5826 5828 5831 5833 5834 5835 5836 5837
5807 5806 5805 5803 5801 5798 5796 5793 5791 5789 5788 5787 5785 5784 5784 5784 5783 5783 5782 5781 5781 5781 5781 5781 5782 5785 5789 5793 5797 5801 5804 5808 5811 5814 5817 5819 5822 5825 5827 5829 5830 5832 5833
5801 5801 5800 5798 5795 5793 5791 5788 5786 5784 5783 5783 5781 5780 5780 5779 5779 5778 5777 5777 5777 5777 5778 5778 5779 5781 5784 5787 5791 5794 5797 5801 5804 5807 5810 5813 5815 5818 5820 5823 5824 5826 5828
5795 5795 5794 5793 5790 5788 5786 5783 5780 5779 5778 5778 5777 5776 5775 5775 5774 5773 5773 5772 5772 5772 5773 5775 5776 5778 5780 5782 5785 5788 5791 5794 5797 5800 5803 5806 5808 5811 5813 5816 5818 5820 5821
5789 5789 5788 5786 5784 5782 5779 5777 5774 5773 5772 5772 5772 5771 5770 5769 5769 5768 5768 5767 5767 5767 5768 5769 5771 5773 5775 5776 5778 5781 5783 5787 5790 5793 5796 5799 5801 5803 5805 5808 5810 5812 5815
5783 5783 5782 5780 5778 5776 5773 5771 5769 5767 5767 5767 5766 5766 5765 5764 5763 5763 5762 5762 5761 5762 5763 5765 5766 5767 5768 5770 5772 5774 5776 5778 5781 5784 5788 5790 5792 5795 5797 5799 5802 5805 5807
5777 5777 5776 5774 5772 5770 5768 5766 5764 5763 5762 5761 5761 5760 5759 5758 5757 5757 5757 5757 5757 5757 5758 5759 5760 5761 5762 5764 5765 5767 5768 5770 5773 5776 5779 5782 5784 5787 5789 5791 5794 5797 5800
5770 5770 5769 5767 5765 5763 5762 5760 5759 5758 5757 5756 5755 5754 5753 5752 5751 5750 5750 5751 5751 5751 5752 5753 5754 5755 5756 5757 5758 5760 5761 5763 5765 5768 5771 5774 5776 5779 5782 5785 5787 5790 5793
5764 5764 5762 5760 5759 5757 5755 5754 5753 5752 5750 5749 5748 5747 5746 5745 5744 5744 5744 5744 5744 5745 5746 5747 5748 5749 5750 5750 5751 5753 5755 5757 5758 5760 5763 5766 5769 5772 5774 5778 5781 5784 5787
5758 5758 5756 5754 5753 5751 5750 5748 5747 5745 5743 5741 5740 5738 5738 5737 5737 5736 5736 5737 5738 5738 5739 5740 5742 5743 5744 5745 5745 5746 5748 5750 5752 5753 5756 5759 5762 5765 5768 5770 5774 5777 5780
5752 5752 5751 5750 5748 5746 5744 5742 5740 5738 5737 5734 5732 5730 5729 5729 5729 5729 5728 5729 5730 5730 5731 5733 5734 5735 5737 5738 5739 5740 5741 5743 5745 5746 5749 5751 5754 5757 5760 5764 5767 5770 5773
5747 5747 5746 5745 5743 5741 5738 5736 5734 5732 5730 5727 5724 5722 5721 5721 5721 5720 5720 5720 5721 5722 5723 5724 5726 5728 5729 5730 5732 5733 5735 5736 5738 5740 5742 5744 5746 5750 5753 5756 5760 5763 5766
5744 5743 5741 5739 5737 5735 5733 5731 5729 5726 5723 5720 5717 5714 5713 5712 5712 5712 5711 5712 5712 5713 5714 5716 5718 5720 5721 5723 5725 5726 5728 5729 5732 5734 5735 5737 5739 5742 5745 5748 5752 5755 5759
5739 5738 5736 5734 5732 5730 5728 5725 5722 5719 5716 5712 5709 5707 5705 5703 5703 5703 5703 5703 5703 5704 5705 5707 5709 5711 5713 5715 5717 5719 5721 5723 5725 5727 5729 5731 5732 5734 5737 5740 5743 5747 5751
5735 5733 5731 5729 5727 5725 5722 5719 5715 5712 5708 5704 5702 5699 5697 5696 5694 5693 5693 5693 5694 5694 5695 5697 5700 5702 5704 5707 5709 5711 5714 5716 5719 5721 5723 5724 5726 5727 5729 5732 5735 5739 5743
5730 5729 5727 5726 5724 5721 5718 5714 5710 5706 5702 5699 5695 5693 5690 5688 5686 5685 5683 5683 5683 5684 5685 5688 5690 5693 5696 5699 5701 5704 5707 5710 5713 5715 5717 5718 5720 5721 5723 5725 5728 5731 5735
5727 5725 5724 5722 5720 5717 5713 5709 5705 5701 5697 5694 5691 5688 5685 5682 5679 5676 5674 5672 5672 5673 5676 5679 5682 5685 5689 5692 5695 5698 5701 5704 5707 5709 5711 5713 5714 5715 5716 5718 5721 5724 5727
5724 5722 5721 5719 5717 5714 5710 5706 5701 5697 5694 5691 5688 5685 5682 5678 5675 5671 5666 5663 5663 5664 5667 5671 5674 5679 5682 5686 5690 5693 5696 5699 5702 5704 5706 5708 5709 5711 5711 5712 5714 5716 5719
5722 5720 5719 5717 5715 5712 5708 5703 5699 5695 5692 5690 5687 5684 5681 5678 5673 5668 5663 5659 5658 5660 5663 5666 5670 5674 5678 5682 5685 5688 5691 5694 5697 5699 5701 5703 5704 5705 5706 5707 5708 5710 5712
Wind_Speed
23 22 22 21 20 20 20 20 22 23 22 20 19 17 17 19 19 18 15 13 14 15 18 19 18 18 19 19 17 15 14 13 11 8 5 3 4 5 6 8 11 14 15
23 24 25 23 23 22 21 21 22 22 20 19 18 19 20 20 19 20 20 20 20 20 21 23 22 22 21 20 20 18 17 16 14 11 9 8 7 6 5 6 7 11 14
24 26 27 26 25 24 22 22 22 21 20 19 19 20 21 21 20 21 23 24 25 25 24 25 25 24 24 22 22 22 21 20 17 13 12 12 11 9 8 8 8 8 9
26 28 30 26 25 24 23 22 22 22 22 21 22 23 24 22 21 21 22 23 24 26 27 27 28 27 28 27 25 24 23 23 20 17 15 15 14 13 13 12 12 11 11
28 30 29 25 24 24 23 22 21 21 21 22 23 24 23 21 22 22 23 24 24 25 26 28 31 30 32 32 30 28 25 25 23 19 18 18 18 17 16 16 16 16 15
29 29 28 26 25 24 23 23 22 21 21 22 21 20 19 19 21 23 24 24 24 22 24 27 31 33 33 33 32 30 28 27 24 23 22 21 21 19 17 16 17 18 17
29 30 27 26 27 26 25 24 24 22 20 19 18 16 15 15 17 20 22 22 21 20 22 28 31 32 32 32 31 31 30 29 28 28 26 24 22 21 19 17 16 15 16
28 27 24 24 25 26 25 24 24 22 20 18 16 14 13 13 14 16 18 18 18 17 19 23 29 32 32 31 31 31 32 32 31 31 30 27 25 23 21 20 18 15 16
28 25 23 23 23 24 23 22 21 20 19 17 15 14 13 13 15 16 16 16 15 14 14 15 18 25 31 33 33 33 32 32 31 30 31 30 28 27 25 23 22 21 19
27 25 22 23 24 25 24 21 19 18 17 15 14 13 13 14 15 17 16 15 14 15 16 15 16 19 26 30 33 33 33 33 32 30 29 30 31 30 28 27 26 25 23
26 25 24 25 25 25 24 22 19 17 16 15 15 14 15 15 15 16 16 16 15 15 16 18 18 18 20 24 29 32 32 32 32 32 31 32 33 32 31 30 29 28 26
25 25 26 26 26 25 23 20 18 17 17 16 17 17 18 19 19 18 17 17 17 16 16 17 19 20 21 22 25 30 31 32 33 35 35 36 36 35 33 33 33 31 28
25 24 25 27 28 26 22 19 17 17 17 18 19 20 21 22 21 20 19 19 18 16 15 17 18 19 20 22 25 29 31 32 33 34 34 34 33 32 33 34 35 34 31
24 24 25 28 29 26 22 19 17 16 17 18 20 22 22 23 23 22 21 20 19 17 17 18 19 19 19 19 22 26 29 31 33 33 33 33 32 31 31 32 33 33 32
23 24 26 29 28 25 22 19 17 18 19 20 21 22 22 22 22 23 22 21 21 20 19 19 20 22 23 23 22 22 24 27 31 33 33 33 32 31 30 29 30 30 31
24 25 28 29 25 22 20 19 20 22 23 24 24 23 22 22 22 23 22 22 22 22 22 21 22 22 22 22 21 22 24 26 27 31 33 33 31 30 31 30 29 30 30
28 28 27 23 20 20 21 22 24 26 27 27 27 25 24 23 23 24 24 24 24 25 24 23 23 23 22 21 21 21 24 26 27 28 30 32 32 30 30 32 32 31 31
25 22 19 18 20 22 23 25 26 27 27 27 27 26 25 24 25 25 25 25 25 25 25 25 24 24 24 24 23 23 24 26 27 27 28 30 32 32 31 32 32 32 32
16 15 16 19 21 22 23 24 25 26 26 26 27 27 27 26 26 26 27 26 25 25 24 25 25 25 26 26 27 26 26 28 29 28 27 26 30 33 33 33 33 33 33
10 13 16 19 21 21 21 22 23 25 26 27 28 28 28 27 26 27 28 29 28 27 26 25 25 25 25 26 28 28 28 28 29 29 28 28 28 31 34 35 34 34 33
10 14 16 17 18 19 20 22 24 26 27 27 27 28 28 28 28 29 30 31 30 29 28 27 26 25 26 28 30 30 29 27 26 26 27 27 28 28 31 35 37 36 35
13 14 15 16 17 18 20 22 24 25 25 25 24 24 25 27 28 30 30 31 30 30 29 28 27 26 27 27 29 30 29 27 24 22 24 26 27 27 26 29 34 37 38
14 14 14 15 16 18 20 22 21 21 21 20 19 19 20 23 25 26 28 29 29 30 30 29 28 27 26 24 25 28 28 27 24 22 21 23 25 27 27 27 29 32 35
13 13 13 14 15 18 20 20 19 19 18 17 16 16 16 17 18 20 23 25 26 27 27 26 25 25 25 24 24 26 27 26 25 24 23 21 22 24 27 28 29 30 30
12 12 12 13 16 19 20 19 18 17 16 15 14 13 13 14 15 17 17 17 18 19 19 19 20 21 23 23 24 25 25 24 23 24 24 24 23 23 23 24 27 30 32
11 11 12 13 16 18 20 19 18 16 14 13 12 12 12 12 14 14 12 7 4 8 12 14 16 18 19 21 22 23 23 22 22 23 23 23 21 20 20 22 24 27 30
Wind_Direction
276 277 279 287 292 298 304 309 313 311 304 302 295 289 287 292 289 287 288 283 275 264 253 247 241 237 236 236 236 235 231 229 220 218 226 204 192 206 214 221 220 220 221
275 278 284 287 292 298 302 306 308 305 298 294 290 286 288 290 285 279 278 277 276 273 263 253 245 238 236 235 232 229 230 229 222 218 224 230 223 218 206 203 210 219 223
277 282 285 286 291 295 298 302 304 302 293 288 289 289 288 285 276 270 268 270 272 273 266 253 244 238 236 234 227 223 230 231 228 227 225 230 227 230 228 218 214 220 231
279 283 284 284 289 292 295 299 301 298 290 287 288 287 283 276 267 261 261 265 271 269 260 249 239 235 234 232 226 223 231 234 234 235 235 234 236 240 244 238 231 227 231
277 280 283 288 292 293 293 295 295 292 288 287 286 284 279 269 262 259 262 266 271 267 255 244 236 233 234 232 228 229 235 234 232 237 240 242 244 244 242 241 239 236 234
275 281 289 292 293 295 296 296 296 292 290 287 285 281 276 267 262 263 267 271 274 266 252 243 236 233 234 233 230 231 233 229 233 239 240 244 247 246 239 237 239 239 235
279 287 292 295 300 302 302 298 298 296 291 285 284 281 274 268 266 266 267 271 273 268 259 245 237 230 228 228 226 225 225 227 239 241 241 242 244 245 239 235 236 238 239
287 294 298 300 303 306 305 300 298 295 289 284 283 282 275 272 278 281 279 274 273 272 266 253 239 225 220 222 223 222 226 232 240 240 239 241 241 243 242 238 238 243 247
293 297 300 304 303 304 309 306 299 293 289 287 286 284 279 276 281 287 291 287 275 267 268 266 249 229 223 223 223 225 230 235 242 239 238 241 242 244 244 243 245 248 253
294 297 296 299 299 299 304 305 297 289 285 287 288 288 287 285 285 287 291 293 282 269 262 257 250 240 232 229 227 230 235 239 240 236 237 238 239 244 246 246 246 249 253
291 293 291 290 295 298 299 299 290 280 277 279 284 288 291 293 294 292 292 291 288 276 261 253 254 249 242 238 233 232 233 237 238 238 240 242 241 242 244 245 245 247 248
286 286 287 288 294 300 301 299 286 274 271 274 279 284 289 291 292 292 292 291 287 281 269 259 256 255 252 248 242 236 234 237 240 242 244 246 246 243 244 244 243 241 242
282 281 283 290 297 300 302 301 290 275 270 271 276 281 284 286 287 288 289 289 285 276 265 257 255 256 256 253 248 244 242 241 240 241 243 244 243 242 240 240 239 238 240
275 277 283 293 297 296 297 299 294 285 277 277 279 280 281 283 284 283 283 281 277 270 264 260 258 258 258 258 256 251 249 245 240 240 241 241 240 238 237 236 234 236 238
274 279 288 295 296 293 293 294 293 292 291 291 289 286 282 282 280 278 276 274 269 266 263 263 263 261 260 261 261 256 252 247 241 239 238 238 238 236 234 232 232 235 237
278 285 292 295 294 292 291 291 294 297 300 299 297 293 286 281 276 273 273 271 269 268 265 262 260 260 260 260 259 255 254 253 248 241 237 235 234 233 231 229 230 233 235
279 286 291 290 290 291 290 291 294 298 300 300 299 294 288 279 274 272 273 272 269 268 266 259 254 255 257 259 258 255 252 249 248 243 237 232 230 230 230 228 228 229 231
278 284 286 290 293 293 293 294 296 297 298 297 295 291 288 283 279 278 277 274 271 268 265 259 253 254 259 259 256 252 251 249 246 244 240 236 232 229 228 226 226 227 229
271 280 288 293 295 295 296 296 297 297 298 297 294 291 288 284 279 277 275 273 272 270 265 258 255 255 259 259 255 250 249 250 249 247 244 242 236 231 228 226 225 226 229
278 287 290 292 295 298 298 298 298 299 300 298 294 291 288 284 280 276 273 273 271 268 265 259 254 254 254 251 250 249 247 247 248 247 245 244 240 236 232 229 227 227 228
295 295 296 298 302 304 305 305 306 305 303 299 293 288 285 284 281 278 275 273 271 268 264 260 257 253 248 245 244 245 245 245 246 247 248 248 246 241 238 234 232 229 228
306 307 307 308 310 312 314 315 313 311 308 304 298 292 287 284 282 280 277 272 269 266 263 260 258 254 248 243 238 237 239 241 243 245 248 250 251 245 240 236 233 230 229
312 313 311 311 315 320 323 322 319 317 315 313 309 302 296 291 287 283 278 273 268 263 260 259 257 252 238 234 233 232 235 237 241 246 250 253 255 253 245 235 228 228 230
314 314 315 318 325 330 331 329 325 323 323 322 320 315 311 308 303 295 285 275 266 258 254 251 249 239 230 231 231 231 234 237 240 245 250 254 261 264 257 246 236 231 230
320 320 320 326 331 334 336 336 335 334 332 331 333 334 335 333 326 318 305 286 266 251 243 236 230 227 226 227 229 230 233 238 242 245 249 255 260 263 262 256 251 245 239
322 320 318 322 329 334 339 344 348 346 340 337 340 344 348 351 352 353 350 338 267 220 211 212 213 216 221 225 228 230 233 237 241 244 247 251 254 256 257 255 253 251 248